This is the latest recevied weather packets stored in our database for station/object KI4HRG. If no packets are shown the sender has not sent any weather packets the latest 10 day(s).
| Time | Temp. | Humidity | Pressure | Rain* | Wind** | Luminosity | Snow |
|---|---|---|---|---|---|---|---|
| 1787617301 | 29.44° C | 59% | 1014.8 hPa | 0 mm | - | 0 W/m² | - |
| 1787616999 | 29.44° C | 58% | 1014.7 hPa | 0 mm | - | 3 W/m² | - |
| 1787616695 | 30° C | 57% | 1014.3 hPa | 0 mm | - | 7 W/m² | - |
| 1787616393 | 30° C | 57% | 1014.3 hPa | 0 mm | - | 11 W/m² | - |
| 1787616092 | 30.56° C | 56% | 1014.2 hPa | 0 mm | - | 15 W/m² | - |
| 1787615792 | 30.56° C | 54% | 1014.3 hPa | 0 mm | - | 15 W/m² | - |
| 1787615487 | 31.11° C | 53% | 1014 hPa | 0 mm | - | 16 W/m² | - |
| 1787615183 | 31.11° C | 53% | 1014 hPa | 0 mm | - | 16 W/m² | - |
| 1787614879 | 31.11° C | 52% | 1014.1 hPa | 0 mm | - | 19 W/m² | - |
| 1787614574 | 31.11° C | 51% | 1014.1 hPa | 0 mm | - | 23 W/m² | - |
| 1787614272 | 31.67° C | 51% | 1014 hPa | 0 mm | - | 26 W/m² | - |
| 1787613968 | 31.67° C | 50% | 1014.3 hPa | 0 mm | - | 30 W/m² | - |
| 1787613664 | 31.67° C | 51% | 1014.2 hPa | 0 mm | - | 33 W/m² | - |
| 1787613358 | 31.67° C | 50% | 1014.2 hPa | 0 mm | - | 35 W/m² | - |
| 1787613055 | 31.67° C | 49% | 1014.2 hPa | 0 mm | - | 39 W/m² | - |
| 1787612751 | 32.22° C | 50% | 1014.2 hPa | 0 mm | - | 42 W/m² | - |
| 1787612448 | 32.22° C | 50% | 1014.1 hPa | 0 mm | - | 43 W/m² | - |
| 1787612142 | 32.22° C | 49% | 1014.3 hPa | 0 mm | - | 46 W/m² | - |
| 1787611838 | 32.22° C | 50% | 1014.3 hPa | 0 mm | - | 49 W/m² | - |
| 1787611535 | 32.22° C | 50% | 1014.3 hPa | 0 mm | - | 52 W/m² | - |
| 1787611230 | 32.78° C | 50% | 1014.6 hPa | 0 mm | - | 54 W/m² | - |
| 1787610925 | 32.78° C | 50% | 1014.3 hPa | 0 mm | - | 56 W/m² | - |
| 1787610622 | 32.78° C | 50% | 1014.4 hPa | 0 mm | - | 66 W/m² | - |
| 1787610316 | 32.78° C | 51% | 1014.2 hPa | 0 mm | - | 69 W/m² | - |
| 1787610015 | 32.78° C | 49% | 1014.3 hPa | 0 mm | - | 74 W/m² | - |
* Rain latest hour (hover to see other rain measurements)
** Current wind speed in m/s (hover to see current wind gust speed)